Regional Weather Roundup
Issued by NWS

Home | Current Version | Previous Version | Text Only | Print | Product List | Glossary On
Versions: 1 2 3 4 5 6 7 8 9 10 11 12 13 14 15 16 17 18 19 20 21 22 23 24 25 26 27 28 29 30 31 32 33 34 35 36 37 38 39 40 41 42 43 44 45 46 47 48 49 50
465
ASUS44 KLIX 190901
RWRLA
LOUISIANA WEATHER ROUNDUP
NATIONAL WEATHER SERVICE NEW ORLEANS LA
400 AM CDT SAT APR 19 2014

NOTE: "FAIR" INDICATES FEW OR NO CLOUDS BELOW 12,000 FEET WITH NO
      SIGNIFICANT WEATHER AND/OR OBSTRUCTIONS TO VISIBILITY.
      SKY/WX - SKY CONDITION AND SIGNIFICANT WEATHER.
      TMP - AIR TEMPERATURE.    DP   - DEWPOINT TEMPERATURE.
      RH  - RELATIVE HUMIDITY.  PRES - PRESSURE.
      HX  - HEAT INDEX.         WCI  - WIND CHILL INDEX.

*  THESE STATIONS ARE NOT NWS OR FAA STATIONS AND ARE NOT UNDER
   NWS QUALITY CONTROL.

LAZ040-048-061>063-065-066-069-191000-
SOUTHEAST LOUISIANA

CITY           SKY/WX    TMP DP  RH WIND       PRES   REMARKS
N.O. AUDUBON     N/A     58  53  81 MISG        N/A
N.O. INTL ARPT PTCLDY    60  52  74 NE13G22   30.11S
N.O. LAKEFRONT CLEAR     59  54  83 NE20      30.10F
N.O. DOWNTOWN* FAIR      59  48  67 N6        30.11S
SLIDELL        CLEAR     54  51  90 N7        30.09F
BATON ROUGE    CLEAR     55  52  89 CALM      30.14R
BOOTHVILLE     MOCLDY    59  55  87 N9G17     30.08S
BELLE CHASSE   CLEAR     58  51  78 N8G16     30.10R
BOGALUSA*        N/A     54  50  89 NE5       30.13S
GALLIANO*      NOT AVBL
NEW ROADS*     NOT AVBL
GONZALES*      FAIR      54  54 100 CALM      30.13S
HAMMOND*       NOT AVBL
HOUMA*           N/A     56  52  85 N3        30.12R
PORT FOURCHON* PTSUNNY   61  55  82 N8        30.13R

$$

LAZ041-044-053-054-191000-
SOUTHWEST LOUISIANA

CITY           SKY/WX    TMP DP  RH WIND       PRES   REMARKS
LAKE CHARLES   PTCLDY    58  55  90 NE5       30.12R
LAFAYETTE      CLEAR     58  57  97 CALM      30.14R
PATTERSON      CLEAR     57  54  88 E5        30.16R
SALT POINT       N/A     60  57  89 CALM      30.12R
NEW IBERIA     CLEAR     59  55  87 E5        30.14R
CHENAULT AIRPK NOT AVBL

$$

LAZ027-028-191000-
CENTRAL LOUISIANA

CITY           SKY/WX    TMP DP  RH WIND       PRES   REMARKS
FORT POLK      CLEAR     58  54  86 NE3       30.13S
ALEXANDRIA INT CLEAR     54  54 100 CALM      30.12F FOG
ALEXANDRIA     CLEAR     54  51  90 CALM      30.14S FOG

$$

LAZ001-002-191000-
NORTHWEST LOUISIANA

CITY           SKY/WX    TMP DP  RH WIND       PRES   REMARKS
SHREVEPORT     PTCLDY    54  51  90 CALM      30.14R
BARKSDALE AFB  PTCLDY    54  54 100 N1        30.14F
DTN SHREVEPORT PTCLDY    53  51  93 CALM      30.15S

$$

LAZ014-016-191000-
NORTHEAST LOUISIANA

CITY           SKY/WX    TMP DP  RH WIND       PRES   REMARKS
MONROE         CLEAR     52  51  97 CALM      30.17R FOG
TALLULAH       CLEAR     57  54  89 CALM      30.15S

$$




USA.gov is the U.S. government's official web portal to all federal, state and local government web resources and services.